Location: Newark
(54.6833°N, 25.2833°E)
Time: 19:27:05
(UTC+00:00)

Tiros 1 - Visible Passes

Search period start: 13 November 2019 00:00
Search period end: 23 November 2019 00:00
Orbit: 630 x 664 km, 48.4° (Epoch: 12 November)

Date Brightness Start Highest point End Pass type
(mag) Time Alt. Az. Time Alt. Az. Time Alt. Az.
13 Nov 8.2 16:12:00 10° SW 16:16:08 32° SSE 16:18:06 23° ESE visible
13 Nov 8.9 17:53:24 10° WSW 17:55:45 26° SW 17:55:45 26° SW visible
14 Nov 8.8 14:56:50 10° SSW 15:00:27 23° SSE 15:04:06 10° ESE visible
14 Nov 8.0 16:37:37 10° WSW 16:41:55 38° S 16:42:59 33° SE visible
14 Nov 9.6 18:19:20 10° WSW 18:20:39 17° WSW 18:20:39 17° WSW visible
15 Nov 8.4 15:22:03 10° SW 15:26:08 31° SSE 15:30:13 10° ESE visible
15 Nov 8.0 17:03:25 10° WSW 17:07:44 38° S 17:07:53 38° S visible
15 Nov 10.2 18:45:25 10° WSW 18:45:33 11° WSW 18:45:33 11° WSW visible
16 Nov 8.1 15:47:38 10° WSW 15:51:55 37° S 15:55:08 16° ESE visible
16 Nov 8.5 17:29:19 10° WSW 17:32:48 32° SSW 17:32:48 32° SSW visible
17 Nov 8.1 16:13:25 10° WSW 16:17:43 38° S 16:20:04 23° SE visible
17 Nov 9.2 17:55:24 10° WSW 17:57:44 22° SW 17:57:44 22° SW visible
18 Nov 8.3 14:57:40 10° WSW 15:01:55 37° S 15:06:12 10° ESE visible
18 Nov 8.3 16:39:19 10° WSW 16:43:32 34° SSW 16:45:03 27° SSE visible
18 Nov 9.9 18:21:46 10° WSW 18:22:43 13° WSW 18:22:43 13° WSW visible
19 Nov 8.2 15:23:25 10° WSW 15:27:43 38° S 15:32:03 10° ESE visible
19 Nov 8.6 17:05:22 10° WSW 17:09:16 27° SSW 17:10:05 25° S visible
20 Nov 8.4 15:49:20 10° WSW 15:53:32 35° S 15:57:31 11° SE visible
20 Nov 9.2 17:31:42 10° WSW 17:34:53 18° SSW 17:35:12 18° SSW visible
21 Nov 8.8 16:15:21 10° WSW 16:19:17 27° SSW 16:22:44 12° SSE visible
21 Nov 9.9 17:59:12 10° SW 18:00:22 11° SW 18:00:25 11° SW visible
22 Nov 8.5 14:59:19 10° WSW 15:03:32 35° S 15:07:46 10° SE visible
22 Nov 9.4 16:41:38 10° WSW 16:44:54 19° SSW 16:48:05 10° SSE visible
